Simultaneous Nadir Overpasses (SNOs) Predictions

Prediction of SNOs between METOP-C and LANDSAT-8 Satellite Orbit:

Table of predicted SNOs for the next 14.0 days since TLE Epoch: 1/24/2025
Index Date (METOP-C) Time (METOP-C) Lat,Lon (METOP-C) SZA (METOP-C ) Date (LANDSAT-8) Time (LANDSAT-8) Lat,Lon (LANDSAT-8) SZA (LANDSAT-8 ) Distance(km) Time Diff (sec)
1 01/25/2025 02:16:10 81.13,-174.10 101.72 01/25/2025 02:16:13 81.13,-174.15 101.72 0.94 3
2 01/25/2025 03:06:49 -81.15, -6.25 78.23 01/25/2025 03:05:39 -81.15, -6.21 78.25 0.91 70
3 01/27/2025 20:59:53 -81.10, 84.11 79.10 01/27/2025 21:01:05 -81.10, 84.19 79.07 1.42 72
4 01/27/2025 21:50:32 81.13,-107.75 100.99 01/27/2025 21:50:30 81.13,-107.72 100.99 0.62 2
5 01/27/2025 22:40:51 -81.32, 67.83 78.09 01/27/2025 22:39:37 -81.53, 67.51 78.00 23.71 74
6 01/30/2025 16:34:15 -81.11, 150.72 79.85 01/30/2025 16:35:22 -81.11, 150.75 79.82 0.68 67
7 01/30/2025 17:24:54 81.14, -41.16 100.24 01/30/2025 17:24:47 81.14, -41.19 100.24 0.69 7
8 02/02/2025 12:08:37 -81.11,-142.79 80.65 02/02/2025 12:09:39 -81.10,-142.95 80.64 2.77 62
9 02/02/2025 12:59:17 81.12, 24.91 99.39 02/02/2025 12:59:04 81.13, 25.08 99.41 3.00 13
10 02/05/2025 07:42:58 -81.11, -76.45 81.50 02/05/2025 07:43:54 -81.10, -76.55 81.49 1.86 56



Historial Predications of SNOs between METOP-C and LANDSAT-8
